Tracking 31027 objects as of 19-Jul-2025
HD Live streaming from Space Station
objects crossing your sky now

STARLINK-1560

Track STARLINK-1560 now!
10-day predictions
STARLINK-1560 is classified as:


NORAD ID: 46036
Int'l Code: 2020-055K
Perigee: 553.2 km
Apogee: 555.5 km
Inclination: 53.1 °
Period: 95.6 minutes
Semi major axis: 6925 km
RCS: Unknown
Launch date: August 7, 2020
Source: United States (US)
Launch site: AIR FORCE EASTERN TEST RANGE (AFETR)
Your satellite tracking list
COSMOS 1408 DEB
Track 1 satellite(s)




NASA's NSSDC Master Catalog

Two Line Element Set (TLE):
1 46036U 20055K   25199.72705136  .00000936  00000-0  81749-4 0  9999
2 46036  53.0554  96.9157 0001660  96.2491 263.8687 15.06407012273114
Source of the keplerian elements: AFSPC